Doha, Qatar

4:37 PM +03 on December 18, 2017 (GMT +0300)
Doha International

Weather History for OTBD - June, 2013

Change the Weather History Date:

Tuesday, June 18, 2013

  Actual Average Record
Temperature  
Mean Temperature 99 °F -  
Max Temperature 107 °F 107 °F 118 °F (2017)
Min Temperature 91 °F 83 °F 82 °F (2000)
Cooling Degree Days 34    
Growing Degree Days 49 (Base 50)    
Moisture  
Dew Point 51 °F    
Average Humidity 21    
Maximum Humidity 41    
Minimum Humidity 7    
Precipitation  
Precipitation 0.00 in 0.00 in - ()
Sea Level Pressure  
Sea Level Pressure 29.42 in    
Wind  
Wind Speed 16 mph ()    
Max Wind Speed 26 mph    
Max Gust Speed 37 mph    
Visibility 8.5 miles    
Events      
Averages and records for this station are not official NWS values.
T = Trace of Precipitation, MM = Missing Value Source: Averaged Metar Reports

Daily Weather History Graph

Daily Weather History Graph

Search for Another Location

Airport or City:

Trip Planner

Search our weather history database for the weather conditions in past years. The results will help you decide how hot, cold, wet, or windy it might be!

Date:

Astronomy

Jun. 18, 2013 Rise Set
Actual Time 4:43 AM +03 6:26 PM +03
Civil Twilight 4:17 AM +03 6:52 PM +03
Nautical Twilight 3:46 AM +03 7:23 PM +03
Astronomical Twilight 3:14 AM +03 7:55 PM +03
Moon 1:08 PM +03 12:10 AM +03
Length of Visible Light 14h 34m
Length of Day
13h 42m
Waxing Gibbous, 67% of the Moon is Illuminated
Jun 18
Waxing Gibbous
Jun 23
Full
Jun 30
Last Quarter
Jul 8
New
Jul 16
First Quarter

Hourly Weather History & Observations

Time (+03) Temp. Heat Index Dew Point Humidity Pressure Visibility Wind Dir Wind Speed Gust Speed Precip Events Conditions
12:00 AM 93.2 °F 92.6 °F 59.0 °F 32% 29.39 in 5.6 mi NW 13.8 mph - N/A   Unknown
12:30 AM 93.2 °F 93.3 °F 60.8 °F 34% 29.39 in - NW 13.8 mph - N/A   Clear
1:00 AM 93.2 °F 93.3 °F 60.8 °F 34% 29.39 in - NW 12.7 mph - N/A   Clear
1:30 AM 93.2 °F 93.3 °F 60.8 °F 34% 29.39 in - NW 12.7 mph - N/A   Clear
2:00 AM 91.4 °F 93.2 °F 64.4 °F 41% 29.36 in - NW 12.7 mph 26.5 mph N/A   Clear
2:30 AM 95.0 °F 95.2 °F 60.8 °F 32% 29.36 in - NW 15.0 mph - N/A   Clear
3:00 AM 94 °F - 60 °F 23% 29.38 in 9 mi NNW 16.1 mph - -  
3:00 AM 95.0 °F 95.2 °F 60.8 °F 32% 29.36 in - NNW 16.1 mph - N/A   Clear
3:30 AM 95.0 °F 95.2 °F 60.8 °F 32% 29.36 in - NNW 19.6 mph - N/A   Clear
4:00 AM 95.0 °F 94.4 °F 59.0 °F 30% 29.39 in - NNW 23.0 mph - N/A   Clear
4:30 AM 93.2 °F 93.3 °F 60.8 °F 34% 29.39 in - NNW 19.6 mph 36.8 mph N/A   Clear
5:00 AM 93.2 °F 93.3 °F 60.8 °F 34% 29.39 in - NNW 20.7 mph 32.2 mph N/A   Clear
5:30 AM 93.2 °F 92.6 °F 59.0 °F 32% 29.39 in - NNW 20.7 mph 32.2 mph N/A   Clear
6:00 AM 93.2 °F 92.6 °F 59.0 °F 32% 29.42 in - NNW 19.6 mph - N/A   Clear
6:30 AM 93.2 °F 93.3 °F 60.8 °F 34% 29.42 in - NNW 21.9 mph - N/A   Clear
7:00 AM 95.0 °F 94.4 °F 59.0 °F 30% 29.42 in - NNW 23.0 mph - N/A   Clear
7:30 AM 95.0 °F 94.4 °F 59.0 °F 30% 29.44 in - NNW 17.3 mph 32.2 mph N/A   Clear
8:00 AM 96.8 °F 95.1 °F 55.4 °F 25% 29.44 in - NNW 23.0 mph - N/A   Clear
9:00 AM 101 °F - 54 °F 13% 29.45 in 9 mi NNW 23.0 mph - -  
9:00 AM 100.4 °F 98.4 °F 53.6 °F 21% 29.44 in - NNW 23.0 mph - N/A   Clear
10:00 AM 104.0 °F - 51.8 °F 17% 29.44 in - NNW 23.0 mph - N/A   Clear
11:00 AM 105.8 °F - 46.4 °F 14% 29.44 in - North 23.0 mph - N/A   Clear
12:00 PM 107.6 °F - 48.2 °F 14% 29.44 in - North 26.5 mph - N/A   Clear
12:30 PM 107.6 °F - 44.6 °F 12% 29.42 in - North 24.2 mph - N/A   Clear
1:00 PM 105.8 °F - 44.6 °F 13% 29.42 in - North 25.3 mph - N/A   Clear
1:30 PM 104.0 °F - 50.0 °F 16% 29.42 in - North 23.0 mph - N/A   Clear
2:00 PM 105.8 °F - 46.4 °F 14% 29.42 in - North 23.0 mph - N/A   Clear
2:30 PM 105.8 °F - 46.4 °F 14% 29.42 in - North 20.7 mph - N/A   Clear
3:00 PM 105 °F - 46 °F 7% 29.42 in 9 mi North 19.6 mph - -  
3:00 PM 105.8 °F - 46.4 °F 14% 29.42 in - North 19.6 mph - N/A   Clear
3:30 PM 105.8 °F - 44.6 °F 13% 29.42 in - North 19.6 mph - N/A   Clear
4:00 PM 104.0 °F - 46.4 °F 14% 29.42 in - North 20.7 mph - N/A   Clear
4:30 PM 104.0 °F - 44.6 °F 13% 29.42 in - North 18.4 mph - N/A   Clear
5:00 PM 104.0 °F - 42.8 °F 12% 29.42 in - NNW 16.1 mph - N/A   Clear
5:30 PM 102.2 °F - 44.6 °F 14% 29.42 in - NNW 17.3 mph - N/A   Clear
6:00 PM 100.4 °F - 44.6 °F 15% 29.42 in - NNW 13.8 mph - N/A   Clear
6:30 PM 100.4 °F - 37.4 °F 11% 29.44 in - NNW 15.0 mph - N/A   Clear
7:00 PM 100.4 °F - 41.0 °F 13% 29.42 in - NW 12.7 mph 25.3 mph N/A   Clear
7:30 PM 98.6 °F - 39.2 °F 13% 29.44 in - NNW 12.7 mph - N/A   Clear
8:00 PM 98.6 °F - 41.0 °F 14% 29.44 in - NNW 11.5 mph - N/A   Clear
8:30 PM 96.8 °F - 42.8 °F 16% 29.44 in - North 13.8 mph - N/A   Clear
9:00 PM 95 °F - 44 °F 10% 29.46 in 10 mi NNW 12.7 mph - -  
9:00 PM 95.0 °F - 44.6 °F 18% 29.44 in - NNW 12.7 mph - N/A   Clear
10:00 PM 96.8 °F - 44.6 °F 17% 29.44 in - NNW 5.8 mph - N/A   Clear
11:00 PM 98.6 °F - 41.0 °F 14% 29.44 in - NW 6.9 mph - N/A   Clear